Find Starlink 30587

NORAD ID: 58064 Int'l Des: 2023-158 Owner: SPXS Country: US Constellation: starlink operational
LEOCIRCULAR

实时位置

正在加载3D地球...

关于 Starlink 30587

正在加载描述...

即将过境

Passes for default location (London). Set your location on the main map for personalized predictions.

高度历史

Loading altitude history...

两行轨道根数

1 58064U 23158P 26132.96821977 .00000198 00000-0 16712-4 0 9994
2 58064 43.0028 23.7734 0001370 262.6196 97.4500 15.27581044143405
Epoch: May 12, 2026 • Age: 19 hours

当前状态

高度 482.4 km
速度 7.63 km/s
星下点 12.71°N, 110.52°W
发射日期 Oct 13, 2023
运行时间 2.5 years
类型 internet

技术详情

分类 Payload
质量 730.00 kg
干质量 700.00 kg
总质量 730.00 kg
长度 0.30 m
直径 4.10 m
跨度 29.00 m
形状 Box + pan
制造商 SPXS
平台类型 Starlink V2M
阶段状态 In Orbit
所有者/国家 SPXS/US

Most Searched